Jefferson City, MO

9:13 AM CDT on April 28, 2017 (GMT -0500)
Jefferson City Memorial

Weather History for KJEF - December, 2013

Change the Weather History Date:

Saturday, December 14, 2013

  Actual Average Record
Temperature  
Mean Temperature 30 °F -  
Max Temperature 34 °F 42 °F 71 °F (1975)
Min Temperature 26 °F 21 °F -6 °F (1963)
Degree Days  
Heating Degree Days 35    
Moisture  
Dew Point 27 °F    
Average Humidity 87    
Maximum Humidity 96    
Minimum Humidity 75    
Precipitation  
Precipitation 0.10 in - - ()
Sea Level Pressure  
Sea Level Pressure 30.00 in    
Wind  
Wind Speed 6 mph (NW)    
Max Wind Speed 14 mph    
Max Gust Speed 21 mph    
Visibility 5 miles    
Events Snow    
Averages and records for this station are not official NWS values.
T = Trace of Precipitation, MM = Missing Value Source: NWS Daily Summary

Daily Weather History Graph

Daily Weather History Graph

Search for Another Location

Airport or City:

Trip Planner

Search our weather history database for the weather conditions in past years. The results will help you decide how hot, cold, wet, or windy it might be!

Date:

Astronomy

Dec. 14, 2013 Rise Set
Actual Time 7:18 AM CST 4:48 PM CST
Civil Twilight 6:48 AM CST 5:18 PM CST
Nautical Twilight 6:15 AM CST 5:51 PM CST
Astronomical Twilight 5:43 AM CST 6:23 PM CST
Moon 3:09 PM CST (12/14) 4:41 AM CST (12/14)
Length of Visible Light 10h 29m
Length of Day
9h 29m
Waxing Gibbous, 94% of the Moon is Illuminated
Dec 14
Waxing Gibbous
Dec 17
Full
Dec 25
Last Quarter
Jan 1
New
Jan 7
First Quarter

Hourly Weather History & Observations

Time (CST) Temp. Windchill Dew Point Humidity Pressure Visibility Wind Dir Wind Speed Gust Speed Precip Events Conditions
12:00 AM 33.8 °F 29.6 °F 30.2 °F 87% 29.91 in 3.0 mi ESE 4.6 mph - 0.00 in Snow Light Snow
12:53 AM 33.1 °F 30.0 °F 30.9 °F 92% 29.87 in 6.0 mi East 3.5 mph - 0.02 in   Overcast
1:53 AM 33.1 °F 28.7 °F 30.9 °F 92% 29.86 in 3.0 mi SE 4.6 mph - 0.01 in   Overcast
2:08 AM 32.0 °F - 30.2 °F 93% 29.88 in 2.5 mi Calm Calm - N/A   Overcast
2:53 AM 32.0 °F 28.7 °F 30.9 °F 96% 29.87 in 2.5 mi SE 3.5 mph - N/A   Overcast
3:32 AM 33.8 °F - 30.2 °F 87% 29.87 in 1.8 mi Calm Calm - N/A   Overcast
3:48 AM 33.8 °F - 30.2 °F 87% 29.86 in 3.0 mi Calm Calm - 0.01 in   Overcast
3:53 AM 33.1 °F - 30.9 °F 92% 29.85 in 3.0 mi Calm Calm - 0.01 in   Overcast
4:30 AM 32.0 °F 28.7 °F 30.2 °F 93% 29.86 in 2.0 mi WNW 3.5 mph - 0.00 in Snow Light Snow
4:38 AM 32.0 °F - 30.2 °F 93% 29.86 in 1.2 mi Calm Calm - 0.00 in Snow Light Snow
4:53 AM 32.0 °F - 30.9 °F 96% 29.85 in 1.0 mi Calm Calm - 0.00 in Snow Light Snow
5:08 AM 32.0 °F 28.7 °F 30.2 °F 93% 29.87 in 0.8 mi WNW 3.5 mph - 0.00 in Snow Light Snow
5:24 AM 32.0 °F 28.7 °F 30.2 °F 93% 29.87 in 1.0 mi WNW 3.5 mph - 0.00 in Snow Light Snow
5:46 AM 32.0 °F 27.5 °F 30.2 °F 93% 29.88 in 1.5 mi NW 4.6 mph - 0.00 in Snow Light Snow
5:53 AM 32.0 °F 27.5 °F 30.9 °F 96% 29.86 in 1.8 mi NW 4.6 mph - 0.00 in Snow Light Snow
5:59 AM 32.0 °F 27.5 °F 30.2 °F 93% 29.88 in 2.0 mi WNW 4.6 mph - 0.00 in Snow Light Snow
6:12 AM 32.0 °F 28.7 °F 30.2 °F 93% 29.89 in 4.0 mi WNW 3.5 mph - 0.00 in Snow Light Snow
6:19 AM 32.0 °F 28.7 °F 30.2 °F 93% 29.89 in 4.0 mi WNW 3.5 mph - 0.00 in   Overcast
6:30 AM 32.0 °F 27.5 °F 30.2 °F 93% 29.90 in 4.0 mi WNW 4.6 mph - 0.00 in Snow Light Snow
6:53 AM 32.0 °F 28.7 °F 30.9 °F 96% 29.89 in 3.0 mi WNW 3.5 mph - 0.00 in Snow Light Snow
7:53 AM 33.1 °F 26.9 °F 30.9 °F 92% 29.92 in 4.0 mi NW 6.9 mph - 0.00 in Snow Light Snow
8:40 AM 33.8 °F 25.8 °F 30.2 °F 87% 29.95 in 10.0 mi NNW 10.4 mph - 0.01 in   Overcast
8:53 AM 34.0 °F 26.6 °F 30.0 °F 85% 29.94 in 10.0 mi NNW 9.2 mph - 0.02 in   Overcast
9:36 AM 33.8 °F 24.3 °F 28.4 °F 81% 30.00 in 7.0 mi NW 13.8 mph - 0.03 in   Overcast
9:53 AM 32.0 °F 24.2 °F 28.0 °F 85% 30.00 in 6.0 mi NW 9.2 mph 20.7 mph 0.03 in   Overcast
10:38 AM 30.2 °F 20.8 °F 26.6 °F 86% 30.03 in 6.0 mi NW 11.5 mph 18.4 mph 0.01 in   Overcast
10:53 AM 30.9 °F 21.2 °F 27.0 °F 85% 30.01 in 5.0 mi NW 12.7 mph - 0.01 in   Overcast
11:53 AM 30.0 °F 20.0 °F 26.1 °F 85% 30.00 in 5.0 mi NW 12.7 mph 20.7 mph N/A   Overcast
12:53 PM 28.9 °F 18.2 °F 25.0 °F 85% 30.01 in 4.0 mi NW 13.8 mph 20.7 mph N/A   Overcast
1:53 PM 28.0 °F 18.6 °F 24.1 °F 85% 30.03 in 4.0 mi NW 10.4 mph - N/A   Overcast
2:53 PM 28.0 °F 17.0 °F 24.1 °F 85% 30.05 in 4.0 mi WNW 13.8 mph - N/A   Overcast
3:53 PM 28.0 °F 19.3 °F 24.1 °F 85% 30.09 in 4.0 mi NW 9.2 mph - N/A   Overcast
4:53 PM 28.0 °F 18.1 °F 24.1 °F 85% 30.11 in 6.0 mi WNW 11.5 mph - N/A   Overcast
5:53 PM 28.0 °F 18.1 °F 23.0 °F 81% 30.14 in 6.0 mi WNW 11.5 mph - N/A   Haze
6:53 PM 28.0 °F 18.6 °F 23.0 °F 81% 30.16 in 5.0 mi NW 10.4 mph - N/A   Haze
7:53 PM 28.0 °F 18.1 °F 23.0 °F 81% 30.18 in 6.0 mi WNW 11.5 mph - N/A   Haze
8:31 PM 28.4 °F 19.7 °F 23.0 °F 80% 30.19 in 6.0 mi WNW 9.2 mph - N/A   Haze
8:53 PM 28.0 °F 17.5 °F 21.9 °F 78% 30.19 in 8.0 mi NW 12.7 mph - N/A   Overcast
9:03 PM 26.6 °F 16.2 °F 21.2 °F 80% 30.19 in 8.0 mi WNW 11.5 mph 18.4 mph N/A   Overcast
9:20 PM 26.6 °F 16.8 °F 21.2 °F 80% 30.20 in 8.0 mi NW 10.4 mph - N/A   Overcast
9:53 PM 27.0 °F 18.0 °F 21.0 °F 78% 30.20 in 8.0 mi WNW 9.2 mph - N/A   Overcast
10:14 PM 26.6 °F 18.2 °F 21.2 °F 80% 30.21 in 8.0 mi WNW 8.1 mph - N/A   Overcast
10:40 PM 26.6 °F 17.5 °F 21.2 °F 80% 30.21 in 8.0 mi WNW 9.2 mph - N/A   Overcast
10:53 PM 27.0 °F 18.7 °F 19.9 °F 75% 30.20 in 8.0 mi NW 8.1 mph - N/A   Overcast
11:53 PM 26.1 °F 18.4 °F 19.0 °F 75% 30.21 in 8.0 mi NW 6.9 mph - N/A   Overcast